Tracking 27401 objects as of 3-Jun-2023
HD Live streaming from Space Station
objects crossing your sky now

OPS 7613 (P/L 1)

Track OPS 7613 (P/L 1) now!
10-day predictions
OPS 7613 (P/L 1) is classified as:


NORAD ID: 4256
Int'l Code: 1969-082B
Perigee: 893.5 km
Apogee: 918.1 km
Inclination: 70.0 °
Period: 103.0 minutes
Semi major axis: 7276 km
RCS: 0.5333 m2 (medium)
Launch date: September 30, 1969
Source: United States (US)
Launch site: AIR FORCE WESTERN TEST RANGE (AFWTR)
Your satellite tracking list
Your tracking list is empty




NASA's NSSDC Master Catalog

Two Line Element Set (TLE):
1 04256U 69082B   23154.51416138  .00000110  00000-0  11355-3 0  9996
2 04256  70.0084 187.7184 0016892  76.2077 284.0909 13.98590527735274
Source of the keplerian elements: AFSPC